Flag for Canada Weather past 2 weeks in Selkirk, Manitoba, Canada

Now
65 °F

Mild.


Feels Like: 65 °F
Forecast: 57 / 80 °F
Wind: No wind

Location: Winnipeg The Forks

Current Time: Jul 1, 2015 at 12:34:08 AM

Latest Report: Jul 1, 2015 at 12:00 AM


Visibility: N/A

Pressure: 29.91 "Hg

Humidity: 72%

Dew point: 56 °F

Location of SelkirkLocation

Historic Weather in Selkirk — Graph

°F

Selkirk temperature yesterday

Maximum temperature yesterday: 75 °F (at 2:00 PM)
Minimum temperature yesterday: 58 °F (at 6:00 AM)
Average temperature yesterday: 69 °F

Past Weeks' High & Low Weather Summary

 TemperatureHumidityPressure
High84 °F (Jun 26, 5:00 PM)96% (Jun 25, 4:00 AM)30.20 "Hg (Jun 25, 4:00 AM)
Low49 °F (Jun 16, 6:00 AM)29% (Jun 18, 6:00 PM)29.69 "Hg (Jun 22, 4:00 AM)
Average66 °F65%29.93 "Hg
* Reported Jun 15 11:00 PM — Jun 30 11:00 PM, Selkirk, Weather by CustomWeather, © 2015

Note: Actual official high and low records may vary slightly from our data, if they occured in-between our weather recording intervals... More about our weather records

Advertising

Selkirk weather history for previous 24 hours

 ConditionsComfort  
Time TempWeatherWind HumidityBarometerVisibility
11:00 PM
Tue, Jun 30
67 °FMild.1 mph66%29.91 "HgN/A
10:00 PM69 °FMild.1 mph67%29.91 "HgN/A
9:00 PM71 °FMild.3 mph61%29.90 "HgN/A
8:00 PM74 °FMild.1 mph57%29.90 "HgN/A
7:00 PM74 °FMild.2 mph56%29.90 "HgN/A
6:00 PM75 °FMild.2 mph54%29.91 "HgN/A
5:00 PM75 °FMild.2 mph55%29.91 "HgN/A
4:00 PM75 °FMild.3 mph53%29.92 "HgN/A
3:00 PM75 °FMild.2 mph53%29.92 "HgN/A
2:00 PM75 °FMild.1 mph53%29.93 "HgN/A
1:00 PM72 °FMild.2 mph62%29.95 "HgN/A
12:00 PM69 °FMild.2 mph71%29.95 "HgN/A
11:00 AM69 °FMild.2 mph69%29.96 "HgN/A
10:00 AM67 °FMild.2 mph71%29.97 "HgN/A
9:00 AM66 °FMild.1 mph73%29.97 "HgN/A
7:00 AM60 °FCool.2 mph80%29.97 "HgN/A
6:00 AM58 °FCool.1 mph87%29.97 "HgN/A
5:00 AM58 °FCool.No wind85%29.96 "HgN/A
4:00 AM60 °FCool.2 mph82%29.96 "HgN/A
2:00 AM62 °FCool.2 mph86%29.95 "HgN/A
Weather by CustomWeather, © 2015

See weather overviewHow to use our weather pages